Погода в Чандидасе

Индонезия     8°28′36″S   115°37′12″E
темп.,
°C
ветер,
м/с
пор.,
м/с
влажн.,
%
обл.,
%
осадки,
мм/ч
давл.,
гПа
погр.,
м
2 марта, вт
вт223:00+22с228842 0.0 101135
02:00+23ссз128571 0.0 101032
05:00+22ссз1281100 0.1 100831
08:00+26с117057 0.1 101083
11:00+32вюв125135 0.0 10101073
14:00+31ююз225829 0.3 1009936
17:00+28юз247563 2.3 1008513
20:00+24зсз119269 3.9 101032
3 марта, ср
ср323:00+23ссз129239 0.5 101132
02:00+22ссз128850 0.6 101028
05:00+22ссз128562 0.0 100928
08:00+26с117454 0.0 101060
11:00+31ю235026 0.0 10111150
14:00+31юв225417 0.1 10081025
17:00+28ю22693 0.1 1008691
20:00+23зсз119226 1.7 101032
4 марта, чт
чт423:00+23ссз229159 2.3 101232
02:00+22с128952 2.3 101029
05:00+22сз1287100 0.0 101030
08:00+25сз117783 0.0 101176
11:00+30ю2256100 0.0 1011946
14:00+30ю2360100 1.1 1009939
17:00+27юз2480100 1.7 1008598
20:00+23зсз2391100 2.1 1010131
5 марта, пт
пт523:00+23зсз2487100 0.0 1011121
02:00+23сз2486100 0.1 1010123
05:00+22сз248795 0.1 1009122
08:00+25з367892 0.2 1011572
11:00+28зюз346768 1.0 1011919
14:00+28зюз456884 3.0 1009977
17:00+26зюз3679100 1.4 1008726
20:00+23зсз2388100 1.6 1010157
6 марта, сб
сб623:00+23зсз2286100 0.0 101170
02:00+23сз1284100 0.0 100949
05:00+22ссз1180100 0.0 100829
08:00+25с1172100 0.0 101055
11:00+30ююв2256100 0.0 10101057
14:00+28ююв117787 2.0 1008584
17:00+26юз138598 4.9 1008449
20:00+23зсз119399 7.0 101051